| time (UTC) | temp C | wind direction | speed KPH | gust KPH | rain 1hr cm | rain 24hr cm | rain mn cm | humidity % | barometer mb |
| 20260901053637 | 19 | 67 | 0.0 | 0.0 | 0.00 | 0.00 | 0.00 | 96 | 1026.6 |
| 20260901052639 | 19 | 67 | 0.0 | 0.0 | 0.00 | 0.00 | 0.00 | 97 | 1026.8 |
| 20260901051639 | 19 | 67 | 0.0 | 0.0 | 0.00 | 0.00 | 0.00 | 96 | 1026.8 |
| 20260901045639 | 19 | 67 | 0.0 | 0.0 | 0.00 | 0.00 | 0.00 | 96 | 1026.8 |
| 20260901044639 | 19 | 67 | 0.0 | 0.0 | 0.00 | 0.00 | 0.00 | 97 | 1026.8 |
| 20260901043639 | 20 | 67 | 0.0 | 0.0 | 0.00 | 0.00 | 0.00 | 97 | 1026.8 |
| 20260901042637 | 20 | 67 | 0.0 | 0.0 | 0.00 | 0.00 | 0.00 | 96 | 1026.7 |
| 20260901041638 | 20 | 67 | 0.0 | 0.0 | 0.00 | 0.00 | 0.00 | 96 | 1026.6 |
| 20260901040640 | 20 | 67 | 0.0 | 0.0 | 0.00 | 0.00 | 0.00 | 96 | 1026.5 |
| 20260901035727 | 20 | 67 | 0.0 | 0.0 | 0.00 | 0.00 | 0.00 | 96 | 1026.6 |
| 20260901034729 | 20 | 67 | 0.0 | 0.0 | 0.00 | 0.00 | 0.00 | 95 | 1026.5 |
| 20260901033827 | 20 | 67 | 0.0 | 0.0 | 0.00 | 0.00 | 0.00 | 95 | 1026.4 |
| 20260901031926 | 20 | 67 | 0.0 | 0.0 | 0.00 | 0.00 | 0.00 | 94 | 1026.5 |
| 20260901031827 | 20 | 67 | 0.0 | 0.0 | 0.00 | 0.00 | 0.00 | 95 | 1026.4 |
| 20260901030827 | 20 | 67 | 0.0 | 0.0 | 0.00 | 0.00 | 0.00 | 95 | 1026.4 |
| 20260901025829 | 21 | 67 | 0.0 | 0.0 | 0.00 | 0.00 | 0.00 | 95 | 1026.6 |
| 20260901022928 | 21 | 67 | 0.0 | 0.0 | 0.00 | 0.00 | 0.00 | 94 | 1026.6 |
| 20260901022026 | 21 | 67 | 0.0 | 0.0 | 0.00 | 0.00 | 0.00 | 94 | 1026.6 |
| 20260901021029 | 21 | 67 | 0.0 | 0.0 | 0.00 | 0.00 | 0.00 | 93 | 1026.3 |
| 20260901020026 | 21 | 67 | 0.0 | 0.0 | 0.00 | 0.00 | 0.00 | 94 | 1026.3 |
| 20260901015026 | 21 | 67 | 0.0 | 0.0 | 0.00 | 0.00 | 0.00 | 94 | 1026.2 |
| 20260901014028 | 21 | 67 | 0.0 | 0.0 | 0.00 | 0.00 | 0.00 | 94 | 1026.0 |
| 20260901013125 | 21 | 67 | 1.6 | 1.6 | 0.00 | 0.00 | 0.00 | 93 | 1026.0 |
| 20260901011128 | 21 | 67 | 1.6 | 1.6 | 0.00 | 0.00 | 0.00 | 93 | 1025.7 |
| 20260901010225 | 21 | 67 | 1.6 | 3.2 | 0.00 | 0.00 | 0.00 | 93 | 1025.5 |
| 20260901005228 | 22 | 67 | 1.6 | 1.6 | 0.00 | 0.00 | 0.00 | 92 | 1025.6 |
| 20260901004228 | 22 | 67 | 0.0 | 0.0 | 0.00 | 0.00 | 0.00 | 92 | 1025.6 |
| 20260901003226 | 22 | 67 | 0.0 | 0.0 | 0.00 | 0.00 | 0.00 | 91 | 1025.6 |
| 20260901001228 | 22 | 67 | 3.2 | 3.2 | 0.00 | 0.00 | 0.00 | 89 | 1025.3 |
| 20260901000227 | 22 | 67 | 3.2 | 3.2 | 0.00 | 0.00 | 0.00 | 89 | 1025.4 |
| 20260901000130 | 22 | 67 | 3.2 | 3.2 | 0.00 | 0.00 | 0.00 | 88 | 1025.4 |
| 20260831235227 | 22 | 67 | 1.6 | 1.6 | 0.00 | 0.00 | 0.00 | 89 | 1025.4 |
| 20260831233325 | 23 | 67 | 1.6 | 1.6 | 0.00 | 0.00 | 0.00 | 89 | 1025.4 |
| 20260831232228 | 23 | 67 | 1.6 | 1.6 | 0.00 | 0.00 | 0.00 | 88 | 1025.5 |
| 20260831231228 | 24 | 67 | 1.6 | 1.6 | 0.00 | 0.00 | 0.00 | 86 | 1025.6 |
| 20260831225227 | 24 | 157 | 0.0 | 0.0 | 0.00 | 0.00 | 0.00 | 85 | 1025.6 |
| 20260831224227 | 24 | 157 | 0.0 | 0.0 | 0.00 | 0.00 | 0.00 | 84 | 1025.6 |
| 20260831223226 | 24 | 202 | 0.0 | 1.6 | 0.00 | 0.00 | 0.00 | 84 | 1025.7 |
| 20260831222226 | 24 | 202 | 0.0 | 0.0 | 0.00 | 0.00 | 0.00 | 84 | 1025.9 |
| 20260831220229 | 23 | 202 | 0.0 | 0.0 | 0.00 | 0.00 | 0.00 | 86 | 1026.0 |
| 20260831220127 | 23 | 202 | 0.0 | 0.0 | 0.00 | 0.00 | 0.00 | 86 | 1026.0 |
| 20260831215126 | 23 | 202 | 0.0 | 0.0 | 0.00 | 0.00 | 0.00 | 87 | 1026.0 |
| 20260831213225 | 24 | 22 | 0.0 | 3.2 | 0.00 | 0.00 | 0.00 | 82 | 1026.0 |
| 20260831210226 | 27 | 292 | 0.0 | 0.0 | 0.00 | 0.00 | 0.00 | 71 | 1026.5 |
| 20260831210126 | 27 | 292 | 0.0 | 0.0 | 0.00 | 0.00 | 0.00 | 70 | 1026.5 |
| 20260831205127 | 27 | 292 | 0.0 | 3.2 | 0.00 | 0.00 | 0.00 | 70 | 1026.2 |
| 20260831204126 | 28 | 247 | 0.0 | 0.0 | 0.00 | 0.00 | 0.00 | 69 | 1026.0 |
| 20260831203225 | 28 | 247 | 1.6 | 4.8 | 0.00 | 0.00 | 0.00 | 70 | 1026.1 |
| 20260831202228 | 27 | 247 | 0.0 | 0.0 | 0.00 | 0.00 | 0.00 | 72 | 1025.9 |
| 20260831201325 | 27 | 237 | 3.2 | 6.4 | 0.00 | 0.00 | 0.00 | 72 | 1026.0 |
| 20260831200326 | 27 | 308 | 1.6 | 4.8 | 0.00 | 0.00 | 0.00 | 76 | 1026.2 |
| 20260831195327 | 26 | 157 | 0.0 | 0.0 | 0.00 | 0.00 | 0.00 | 79 | 1026.3 |
| 20260831193326 | 25 | 337 | 0.0 | 0.0 | 0.00 | 0.00 | 0.00 | 85 | 1026.3 |
| 20260831191426 | 25 | 337 | 0.0 | 0.0 | 0.00 | 0.00 | 0.00 | 83 | 1026.4 |
| 20260831190426 | 25 | 341 | 0.0 | 1.6 | 0.00 | 0.00 | 0.00 | 84 | 1026.4 |
| 20260831190327 | 25 | 22 | 0.0 | 0.0 | 0.00 | 0.00 | 0.00 | 84 | 1026.4 |
| 20260831185327 | 25 | 22 | 1.6 | 3.2 | 0.00 | 0.00 | 0.00 | 84 | 1026.6 |
| 20260831184326 | 25 | 22 | 1.6 | 1.6 | 0.00 | 0.00 | 0.00 | 83 | 1026.6 |
| 20260831184228 | 25 | 22 | 1.6 | 1.6 | 0.00 | 0.00 | 0.00 | 84 | 1026.6 |
| 20260831182329 | 25 | 22 | 3.2 | 4.8 | 0.00 | 0.00 | 0.00 | 83 | 1026.6 |
| 20260831181327 | 25 | 22 | 3.2 | 3.2 | 0.00 | 0.00 | 0.00 | 81 | 1026.5 |
| 20260831180328 | 25 | 22 | 1.6 | 3.2 | 0.00 | 0.00 | 0.00 | 81 | 1026.5 |
| 20260831175326 | 25 | 112 | 0.0 | 1.6 | 0.00 | 0.00 | 0.00 | 81 | 1026.5 |
| 20260831174425 | 25 | 135 | 0.0 | 1.6 | 0.00 | 0.00 | 0.00 | 84 | 1026.5 |
| 20260831173427 | 25 | 157 | 3.2 | 4.8 | 0.00 | 0.00 | 0.00 | 86 | 1026.7 |
| 20260831172428 | 25 | 67 | 1.6 | 3.2 | 0.00 | 0.00 | 0.00 | 87 | 1026.8 |
| 20260831171525 | 24 | 67 | 1.6 | 1.6 | 0.00 | 0.00 | 0.00 | 90 | 1026.9 |
| 20260831170528 | 24 | 45 | 1.6 | 1.6 | 0.00 | 0.00 | 0.00 | 93 | 1027.0 |
| 20260831165527 | 23 | 72 | 1.6 | 3.2 | 0.00 | 0.00 | 0.00 | 95 | 1027.0 |
| 20260831164625 | 23 | 22 | 1.6 | 3.2 | 0.00 | 0.00 | 0.00 | 95 | 1027.0 |
| 20260831163626 | 23 | 45 | 0.0 | 0.0 | 0.00 | 0.00 | 0.00 | 97 | 1027.3 |
| 20260831162628 | 23 | 67 | 0.0 | 0.0 | 0.00 | 0.00 | 0.00 | 98 | 1027.3 |
| 20260831161651 | 22 | 67 | 0.0 | 0.0 | 0.00 | 0.00 | 0.00 | 98 | 1027.3 |
| 20260831160726 | 22 | 202 | 0.0 | 0.0 | 0.00 | 0.00 | 0.00 | 99 | 1027.3 |
| 20260831160627 | 22 | 202 | 0.0 | 0.0 | 0.00 | 0.00 | 0.00 | 98 | 1027.3 |
| 20260831155726 | 22 | 202 | 0.0 | 0.0 | 0.00 | 0.00 | 0.00 | 99 | 1027.3 |
| 20260831154726 | 21 | 202 | 0.0 | 0.0 | 0.00 | 0.00 | 0.00 | 100 | 1027.4 |
| 20260831154626 | 21 | 202 | 0.0 | 0.0 | 0.00 | 0.00 | 0.00 | 100 | 1027.4 |
| 20260831152527 | 20 | 202 | 0.0 | 0.0 | 0.00 | 0.00 | 0.00 | 100 | 1027.5 |
| 20260831151427 | 20 | 202 | 0.0 | 0.0 | 0.00 | 0.00 | 0.00 | 100 | 1027.6 |
| 20260831150426 | 20 | 202 | 0.0 | 0.0 | 0.00 | 0.00 | 0.00 | 100 | 1027.8 |
| 20260831145426 | 20 | 202 | 0.0 | 0.0 | 0.00 | 0.00 | 0.00 | 100 | 1027.8 |
| 20260831144426 | 20 | 202 | 0.0 | 0.0 | 0.00 | 0.00 | 0.00 | 100 | 1027.8 |
| 20260831141427 | 19 | 67 | 0.0 | 0.0 | 0.00 | 0.00 | 0.00 | 100 | 1027.7 |
| 20260831141325 | 19 | 67 | 0.0 | 0.0 | 0.00 | 0.00 | 0.00 | 100 | 1027.7 |
| 20260831140328 | 19 | 67 | 0.0 | 0.0 | 0.00 | 0.00 | 0.00 | 100 | 1027.7 |
| 20260831140226 | 19 | 67 | 0.0 | 0.0 | 0.00 | 0.00 | 0.00 | 100 | 1027.7 |
| 20260831134327 | 18 | 67 | 0.0 | 0.0 | 0.00 | 0.00 | 0.00 | 100 | 1027.7 |
| 20260831133328 | 18 | 67 | 0.0 | 0.0 | 0.00 | 0.00 | 0.00 | 100 | 1027.7 |
| 20260831130326 | 18 | 67 | 0.0 | 0.0 | 0.00 | 0.00 | 0.00 | 100 | 1027.5 |
| 20260831124328 | 18 | 67 | 0.0 | 0.0 | 0.00 | 0.00 | 0.00 | 100 | 1027.5 |
| 20260831122426 | 17 | 67 | 0.0 | 0.0 | 0.00 | 0.00 | 0.00 | 99 | 1027.5 |
| 20260831115625 | 17 | 67 | 0.0 | 0.0 | 0.00 | 0.00 | 0.00 | 99 | 1027.4 |
| 20260831114627 | 17 | 67 | 0.0 | 0.0 | 0.00 | 0.00 | 0.00 | 99 | 1027.3 |
| 20260831113725 | 17 | 67 | 0.0 | 0.0 | 0.00 | 0.00 | 0.00 | 99 | 1027.3 |
| 20260831112725 | 17 | 67 | 0.0 | 0.0 | 0.00 | 0.00 | 0.00 | 99 | 1027.3 |
| 20260831111726 | 17 | 67 | 0.0 | 0.0 | 0.00 | 0.00 | 0.00 | 99 | 1027.0 |
| 20260831110825 | 17 | 67 | 0.0 | 0.0 | 0.00 | 0.00 | 0.00 | 99 | 1027.0 |
| 20260831105826 | 17 | 67 | 0.0 | 0.0 | 0.00 | 0.00 | 0.00 | 99 | 1026.9 |
| 20260831105725 | 17 | 67 | 0.0 | 0.0 | 0.00 | 0.00 | 0.00 | 99 | 1026.9 |
| 20260831104728 | 17 | 67 | 0.0 | 0.0 | 0.00 | 0.00 | 0.00 | 98 | 1026.9 |
| 20260831103826 | 17 | 67 | 0.0 | 0.0 | 0.00 | 0.00 | 0.00 | 99 | 1026.8 |
| 20260831102825 | 17 | 67 | 0.0 | 0.0 | 0.00 | 0.00 | 0.00 | 99 | 1026.9 |
| 20260831101828 | 17 | 67 | 0.0 | 0.0 | 0.00 | 0.00 | 0.00 | 99 | 1026.8 |
| 20260831100828 | 17 | 67 | 0.0 | 0.0 | 0.00 | 0.00 | 0.00 | 99 | 1026.7 |
| 20260831095925 | 17 | 67 | 0.0 | 0.0 | 0.00 | 0.00 | 0.00 | 99 | 1026.6 |
| 20260831094927 | 17 | 67 | 0.0 | 0.0 | 0.00 | 0.00 | 0.00 | 99 | 1026.9 |
| 20260831093025 | 18 | 67 | 0.0 | 0.0 | 0.00 | 0.00 | 0.00 | 99 | 1026.7 |
| 20260831092927 | 18 | 67 | 0.0 | 0.0 | 0.00 | 0.00 | 0.00 | 99 | 1026.7 |
| 20260831091929 | 18 | 67 | 0.0 | 0.0 | 0.00 | 0.00 | 0.00 | 99 | 1026.8 |
| 20260831090926 | 18 | 67 | 0.0 | 0.0 | 0.00 | 0.00 | 0.00 | 99 | 1026.8 |
| 20260831090828 | 18 | 67 | 0.0 | 0.0 | 0.00 | 0.00 | 0.00 | 99 | 1026.8 |
| 20260831084926 | 18 | 67 | 0.0 | 0.0 | 0.00 | 0.00 | 0.00 | 98 | 1026.7 |
| 20260831083928 | 18 | 67 | 0.0 | 0.0 | 0.00 | 0.00 | 0.00 | 99 | 1026.6 |
| 20260831082927 | 18 | 67 | 0.0 | 0.0 | 0.00 | 0.00 | 0.00 | 99 | 1026.6 |
| 20260831080926 | 18 | 67 | 0.0 | 0.0 | 0.00 | 0.00 | 0.00 | 99 | 1026.9 |
| 20260831075926 | 18 | 67 | 0.0 | 0.0 | 0.00 | 0.00 | 0.00 | 98 | 1026.7 |
| 20260831075828 | 18 | 67 | 0.0 | 0.0 | 0.00 | 0.00 | 0.00 | 98 | 1026.7 |
| 20260831074926 | 18 | 67 | 0.0 | 0.0 | 0.00 | 0.00 | 0.00 | 98 | 1026.6 |
| 20260831074025 | 18 | 67 | 0.0 | 0.0 | 0.00 | 0.00 | 0.00 | 98 | 1026.7 |
| 20260831073925 | 18 | 67 | 0.0 | 0.0 | 0.00 | 0.00 | 0.00 | 97 | 1026.7 |
| 20260831072926 | 18 | 67 | 0.0 | 0.0 | 0.00 | 0.00 | 0.00 | 98 | 1026.6 |
| 20260831071926 | 18 | 67 | 0.0 | 0.0 | 0.00 | 0.00 | 0.00 | 98 | 1026.4 |
| 20260831071826 | 18 | 67 | 0.0 | 0.0 | 0.00 | 0.00 | 0.00 | 98 | 1026.4 |
| 20260831070826 | 18 | 67 | 0.0 | 0.0 | 0.00 | 0.00 | 0.00 | 98 | 1026.6 |
| 20260831065826 | 18 | 67 | 0.0 | 0.0 | 0.00 | 0.00 | 0.00 | 98 | 1026.6 |
| 20260831064828 | 18 | 67 | 0.0 | 0.0 | 0.00 | 0.00 | 0.00 | 98 | 1026.5 |
| 20260831063827 | 18 | 67 | 0.0 | 0.0 | 0.00 | 0.00 | 0.00 | 98 | 1026.7 |
| 20260831062827 | 18 | 67 | 0.0 | 0.0 | 0.00 | 0.00 | 0.00 | 98 | 1026.7 |
| 20260831061826 | 18 | 67 | 0.0 | 0.0 | 0.00 | 0.00 | 0.00 | 97 | 1026.7 |
| 20260831055825 | 18 | 67 | 0.0 | 0.0 | 0.00 | 0.00 | 0.00 | 97 | 1026.8 |
| 20260831054828 | 18 | 67 | 0.0 | 0.0 | 0.00 | 0.00 | 0.00 | 97 | 1027.0 |